Sierra Vista, AZ

8:32 AM MST on August 17, 2019 (GMT -0700)
Sierra Vista Municipal-Libby Army Air Field

Weather History for KFHU - July, 2019

Change the Weather History Date:

Monday, July 15, 2019

  Actual Average Record
Temperature  
Mean Temperature 82 °F -  
Max Temperature 96 °F 88 °F 102 °F (1998)
Min Temperature 68 °F 69 °F 60 °F (1985)
Cooling Degree Days 17    
Growing Degree Days 32 (Base 50)    
Moisture  
Dew Point 51 °F    
Average Humidity 38    
Maximum Humidity 74    
Minimum Humidity 19    
Precipitation  
Precipitation 0.00 in - - ()
Sea Level Pressure  
Sea Level Pressure 29.88 in    
Wind  
Wind Speed 6 mph (WSW)    
Max Wind Speed 22 mph    
Max Gust Speed -    
Visibility 10 miles    
Events Rain , Thunderstorm    
Averages and records for this station are not official NWS values.
T = Trace of Precipitation, MM = Missing Value Source: NWS Daily Summary

Daily Weather History Graph

Daily Weather History Graph

Search for Another Location

Airport or City:

Astronomy

Jul. 15, 2019 Rise Set
Actual Time 5:26 AM MST 7:27 PM MST
Civil Twilight 4:59 AM MST 7:55 PM MST
Nautical Twilight 4:26 AM MST 8:28 PM MST
Astronomical Twilight 3:50 AM MST 9:03 PM MST
Moon 6:46 PM MST (7/15) 4:18 AM MST (7/15)
Length of Visible Light 14h 55m
Length of Day
14h 00m
Waxing Gibbous, 99% of the Moon is Illuminated
Jul 15
Waxing Gibbous
Jul 16
Full
Jul 24
Last Quarter
Jul 31
New
Aug 7
First Quarter

Hourly Weather History & Observations

Time (MST) Temp. Heat Index Dew Point Humidity Pressure Visibility Wind Dir Wind Speed Gust Speed Precip Events Conditions
12:22 AM 71.6 °F - 59.0 °F 64% 29.96 in 7.0 mi NW 3.5 mph - N/A   Scattered Clouds
12:23 AM 71.6 °F - 59.0 °F 64% 29.96 in 7.0 mi NW 3.5 mph - N/A Rain Light Rain
12:37 AM 71.6 °F - 60.8 °F 69% 29.96 in 10.0 mi West 6.9 mph - N/A   Clear
12:58 AM 73.8 °F - 59.0 °F 60% 29.94 in 9.0 mi SSW 9.2 mph - 0.00 in   Clear
1:15 AM 73.4 °F - 59.0 °F 61% 29.92 in 10.0 mi SW 9.2 mph - N/A   Clear
1:38 AM 75.2 °F - 57.2 °F 53% 29.89 in 10.0 mi SW 10.4 mph - N/A   Clear
1:58 AM 74.5 °F - 56.7 °F 54% 29.88 in 10.0 mi SW 10.4 mph - N/A   Clear
2:58 AM 69.8 °F - 60.6 °F 73% 29.89 in 10.0 mi East 3.5 mph - N/A   Mostly Cloudy
3:58 AM 68.9 °F - 60.3 °F 74% 29.92 in 10.0 mi South 4.6 mph - N/A   Clear
4:58 AM 69.4 °F - 57.6 °F 66% 29.92 in 10.0 mi South 4.6 mph - N/A   Clear
5:58 AM 68.7 °F - 55.6 °F 63% 29.94 in 6.0 mi WSW 3.5 mph - N/A   Smoke
6:58 AM 78.6 °F - 54.0 °F 42% 29.93 in 6.0 mi WSW 3.5 mph - N/A   Smoke
7:58 AM 83.5 °F - 50.0 °F 31% 29.92 in 10.0 mi Calm Calm - N/A   Clear
8:58 AM 84.6 °F 83.0 °F 53.1 °F 34% 29.94 in 10.0 mi Calm Calm - N/A   Clear
9:58 AM 88.3 °F - 52.3 °F 29% 29.93 in 10.0 mi Calm Calm - N/A   Clear
10:46 AM 91.4 °F - 51.8 °F 26% 29.91 in 10.0 mi East 5.8 mph - N/A   Clear
10:58 AM 91.8 °F - 51.1 °F 25% 29.91 in 10.0 mi East 6.9 mph - N/A   Clear
11:55 AM 95.0 °F - 48.2 °F 20% 29.88 in 10.0 mi Calm Calm - N/A   Clear
11:58 AM 94.3 °F - 48.6 °F 21% 29.89 in 10.0 mi Calm Calm - N/A   Clear
12:50 PM 96.8 °F - 48.2 °F 19% 29.85 in 10.0 mi NE 6.9 mph - N/A   Partly Cloudy
12:58 PM 96.1 °F - 48.0 °F 19% 29.86 in 10.0 mi NNE 8.1 mph - N/A Thunderstorm Scattered Clouds
1:51 PM 91.4 °F - 44.6 °F 20% 29.84 in 10.0 mi SW 15.0 mph - N/A Thunderstorm Overcast
1:58 PM 92.1 °F - 46.4 °F 21% 29.84 in 10.0 mi SW 12.7 mph - N/A Thunderstorm Overcast
2:58 PM 91.4 °F - 43.3 °F 19% 29.84 in 10.0 mi WSW 21.9 mph - N/A Thunderstorm Overcast
3:58 PM 90.5 °F - 44.2 °F 20% 29.84 in 10.0 mi WSW 12.7 mph - N/A   Mostly Cloudy
4:58 PM 91.9 °F - 45.1 °F 20% 29.83 in 10.0 mi SSW 4.6 mph - N/A   Mostly Cloudy
5:58 PM 90.9 °F - 44.8 °F 20% 29.81 in 10.0 mi West 12.7 mph - N/A   Mostly Cloudy
6:58 PM 89.2 °F - 43.0 °F 20% 29.81 in 10.0 mi West 6.9 mph - N/A   Partly Cloudy
7:58 PM 82.8 °F - 44.1 °F 26% 29.81 in 8.0 mi WSW 5.8 mph - N/A   Clear
8:37 PM 78.8 °F - 50.0 °F 36% 29.84 in 10.0 mi NW 4.6 mph - N/A   Clear
8:58 PM 78.6 °F - 50.4 °F 37% 29.84 in 10.0 mi WNW 6.9 mph - N/A   Clear
9:38 PM 78.8 °F - 44.6 °F 30% 29.85 in 10.0 mi West 10.4 mph - N/A   Clear
9:58 PM 81.0 °F - 45.7 °F 29% 29.84 in 10.0 mi West 9.2 mph - N/A   Clear
10:58 PM 79.5 °F - 48.0 °F 33% 29.84 in 10.0 mi West 10.4 mph - N/A   Clear
11:58 PM 81.7 °F - 48.0 °F 31% 29.83 in 10.0 mi West 9.2 mph - N/A   Overcast